Skip Page Navigation
NASA JPL Caltech
NASA Logo - Jet Propulsion Laboratory + View the NASA Portal
+ Center for Near-Earth Object Studies
JPL Home Earth Solar System Stars & Galaxies Technology
JPL Solar System Dynamics
BODIES ORBITS EPHEMERIDES TOOLS PHYSICAL DATA DISCOVERY FAQ SITE MAP
JPL Small-Body Database Browser
Search: [ help ]  
67253 (2000 EA106)
Classification: Main-belt Asteroid          SPK-ID: 2067253
Ephemeris | Orbit Diagram | Orbital Elements | Mission Design | Physical Parameters | Discovery Circumstances ]

[ show orbit diagram ]
Orbital Elements at Epoch 2459200.5 (2020-Dec-17.0) TDB
Reference: JPL 26 (heliocentric ecliptic J2000)
 Element Value Uncertainty (1-sigma)   Units 
e .1113042934433277 3.7438e-08  
a 2.691988694446472 1.5938e-08 au
q 2.392358794853681 9.9032e-08 au
i 15.64752896880599 5.4744e-06 deg
node 38.07461204648335 1.4441e-05 deg
peri 239.2723101143176 3.0277e-05 deg
M 172.3463207607946 2.7802e-05 deg
tp 2458428.161311900914
(2018-Nov-05.66131190)
0.00012414 TDB
period 1613.274518935482
4.42
1.4327e-05
3.923e-08
d
yr
n .2231486307969122 1.9817e-09 deg/d
Q 2.991618594039263 1.7711e-08 au
  Orbit Determination Parameters
   # obs. used (total)      1141  
   data-arc span      9919 days (27.16 yr)  
   first obs. used      1993-12-13  
   last obs. used      2021-02-08  
   planetary ephem.      DE441  
   SB-pert. ephem.      SB441-N16  
   condition code      0  
   norm. resid. RMS      .5227  
   source      ORB  
   producer      Otto Matic  
   solution date      2021-Apr-13 12:28:54  

Additional Information
 Earth MOID = 1.41463 au 
 Jupiter MOID = 2.14125 au 
 T_jup = 3.310 
[ show covariance matrix ]

Ephemeris | Orbit Diagram | Orbital Elements | Mission Design | Physical Parameters | Discovery Circumstances ]

Physical Parameter Table
Parameter Symbol Value Units Sigma Reference Notes
absolute magnitude H 14.7   n/a MPO359211  
diameter diameter 2.922 km 0.161 urn:nasa:pds:neowise_diameters_albedos::2.0[mainbelt] (http://adsabs.harvard.edu/abs/2011ApJ...741...68M)  
geometric albedo albedo 0.360   0.054 urn:nasa:pds:neowise_diameters_albedos::2.0[mainbelt] (http://adsabs.harvard.edu/abs/2011ApJ...741...68M)  

67253 (2000 EA106)          Discovered 2000-Mar-11 by LONEOS at Anderson Mesa
Reference: 20030910/Numbers.arcLast Updated: 2004-04-19
Ephemeris | Orbit Diagram | Orbital Elements | Mission Design | Physical Parameters | Discovery Circumstances ]
ABOUT SSD CREDITS/AWARDS PRIVACY/COPYRIGHT GLOSSARY LINKS
FirstGov 2021-Jun-22 02:57 UT
(server date/time)  
NASA Home Page
Site Manager:   Ryan S. Park
Webmaster  Alan B. Chamberlin